Time,TemperatureF,DewpointF,PressureIn,WindDirection,WindDirectionDegrees,WindSpeedMPH,WindSpeedGustMPH,Humidity,HourlyPrecipIn,Conditions,Clouds,dailyrainin,SolarRadiationWatts/m^2,SoftwareType,DateUTC
2013-01-03 00:02:00,38.0,34.0,-100.00,NNW,333,0.0,0.0,87,0.00,,,0.00,0.000000,,2013-01-03 06:02:00,
2013-01-03 00:33:00,37.0,33.0,-100.00,NW,324,0.0,0.0,86,0.00,,,0.00,0.000000,,2013-01-03 06:33:00,
2013-01-03 00:42:00,37.0,33.0,-100.00,NW,324,0.0,0.0,86,0.00,,,0.00,0.000000,,2013-01-03 06:42:00,
2013-01-03 00:53:00,37.0,33.0,-100.00,NW,324,0.0,0.0,86,0.00,,,0.00,0.000000,,2013-01-03 06:53:00,
2013-01-03 01:02:00,37.0,33.0,-100.00,NW,324,0.0,0.0,86,0.00,,,0.00,0.000000,,2013-01-03 07:02:00,
2013-01-03 01:33:00,37.0,33.0,-100.00,NNW,343,0.0,0.0,84,0.00,,,0.00,0.000000,,2013-01-03 07:33:00,
2013-01-03 01:43:00,37.0,33.0,-100.00,NNW,343,0.0,0.0,84,0.00,,,0.00,0.000000,,2013-01-03 07:43:00,
2013-01-03 01:53:00,37.0,33.0,-100.00,NNW,343,0.0,0.0,84,0.00,,,0.00,0.000000,,2013-01-03 07:53:00,
2013-01-03 02:02:00,37.0,33.0,-100.00,NNW,343,0.0,0.0,84,0.00,,,0.00,0.000000,,2013-01-03 08:02:00,
2013-01-03 02:33:00,36.0,32.0,-100.00,North,350,0.0,0.0,85,0.00,,,0.00,0.000000,,2013-01-03 08:33:00,
2013-01-03 02:43:00,36.0,32.0,-100.00,North,350,0.0,0.0,85,0.00,,,0.00,0.000000,,2013-01-03 08:43:00,
2013-01-03 02:53:00,36.0,32.0,-100.00,North,350,0.0,0.0,85,0.00,,,0.00,0.000000,,2013-01-03 08:53:00,
2013-01-03 03:02:00,36.0,32.0,-100.00,North,350,0.0,0.0,85,0.00,,,0.00,0.000000,,2013-01-03 09:02:00,
2013-01-03 03:34:00,36.0,31.0,-100.00,NNW,342,0.0,0.0,82,0.00,,,0.00,0.000000,,2013-01-03 09:34:00,
2013-01-03 03:43:00,36.0,31.0,-100.00,NNW,342,0.0,0.0,82,0.00,,,0.00,0.000000,,2013-01-03 09:43:00,
2013-01-03 03:53:00,36.0,31.0,-100.00,NNW,342,0.0,0.0,82,0.00,,,0.00,0.000000,,2013-01-03 09:53:00,
2013-01-03 04:02:00,36.0,31.0,-100.00,NNW,342,0.0,0.0,82,0.00,,,0.00,0.000000,,2013-01-03 10:02:00,
2013-01-03 04:33:00,35.0,26.0,-100.00,NNW,347,0.0,0.0,68,0.00,,,0.00,0.000000,,2013-01-03 10:33:00,
2013-01-03 04:43:00,35.0,26.0,-100.00,NNW,347,0.0,0.0,68,0.00,,,0.00,0.000000,,2013-01-03 10:43:00,
2013-01-03 04:53:00,35.0,26.0,-100.00,NNW,347,0.0,0.0,68,0.00,,,0.00,0.000000,,2013-01-03 10:53:00,
2013-01-03 05:02:00,35.0,26.0,-100.00,NNW,347,0.0,0.0,68,0.00,,,0.00,0.000000,,2013-01-03 11:02:00,
2013-01-03 05:33:00,35.0,26.0,-100.00,NNW,347,0.0,0.0,69,0.00,,,0.00,0.000000,,2013-01-03 11:33:00,
2013-01-03 05:43:00,35.0,26.0,-100.00,NNW,347,0.0,0.0,69,0.00,,,0.00,0.000000,,2013-01-03 11:43:00,
2013-01-03 05:53:00,35.0,26.0,-100.00,NNW,347,0.0,0.0,69,0.00,,,0.00,0.000000,,2013-01-03 11:53:00,
2013-01-03 06:02:00,35.0,26.0,-100.00,NNW,347,0.0,0.0,69,0.00,,,0.00,0.000000,,2013-01-03 12:02:00,
2013-01-03 06:33:00,34.0,25.0,-100.00,North,356,0.0,0.0,69,0.00,,,0.00,0.000000,,2013-01-03 12:33:00,
2013-01-03 06:43:00,34.0,25.0,-100.00,North,356,0.0,0.0,69,0.00,,,0.00,0.000000,,2013-01-03 12:43:00,
2013-01-03 06:53:00,34.0,25.0,-100.00,North,356,0.0,0.0,69,0.00,,,0.00,0.000000,,2013-01-03 12:53:00,
2013-01-03 07:02:00,34.0,25.0,-100.00,North,356,0.0,0.0,69,0.00,,,0.00,0.000000,,2013-01-03 13:02:00,
2013-01-03 07:33:00,34.0,26.0,-100.00,North,6,0.0,0.0,71,0.00,,,0.00,0.000000,,2013-01-03 13:33:00,
2013-01-03 07:43:00,34.0,26.0,-100.00,North,6,0.0,0.0,71,0.00,,,0.00,0.000000,,2013-01-03 13:43:00,
2013-01-03 07:53:00,34.0,26.0,-100.00,North,6,0.0,0.0,71,0.00,,,0.00,0.000000,,2013-01-03 13:53:00,
2013-01-03 08:03:00,34.0,26.0,-100.00,North,6,0.0,0.0,71,0.00,,,0.00,0.000000,,2013-01-03 14:03:00,
2013-01-03 08:33:00,35.0,28.0,-100.00,North,360,0.0,0.0,76,0.00,,,0.00,34.000000,,2013-01-03 14:33:00,
2013-01-03 08:43:00,35.0,28.0,-100.00,North,360,0.0,0.0,76,0.00,,,0.00,34.000000,,2013-01-03 14:43:00,
2013-01-03 08:53:00,35.0,28.0,-100.00,North,360,0.0,0.0,76,0.00,,,0.00,34.000000,,2013-01-03 14:53:00,
2013-01-03 09:03:00,35.0,28.0,-100.00,North,360,0.0,0.0,76,0.00,,,0.00,34.000000,,2013-01-03 15:03:00,
2013-01-03 09:34:00,36.0,28.0,-100.00,North,4,0.0,0.0,71,0.00,,,0.00,128.000000,,2013-01-03 15:34:00,
2013-01-03 09:43:00,36.0,28.0,-100.00,North,4,0.0,0.0,71,0.00,,,0.00,128.000000,,2013-01-03 15:43:00,
2013-01-03 09:53:00,36.0,28.0,-100.00,North,4,0.0,0.0,71,0.00,,,0.00,128.000000,,2013-01-03 15:53:00,
2013-01-03 10:03:00,36.0,28.0,-100.00,North,4,0.0,0.0,71,0.00,,,0.00,128.000000,,2013-01-03 16:03:00,
2013-01-03 10:34:00,40.0,29.0,-100.00,NNE,17,0.0,0.0,64,0.00,,,0.00,329.000000,,2013-01-03 16:34:00,
2013-01-03 10:43:00,40.0,29.0,-100.00,NNE,17,0.0,0.0,64,0.00,,,0.00,329.000000,,2013-01-03 16:43:00,
2013-01-03 10:53:00,40.0,29.0,-100.00,NNE,17,0.0,0.0,64,0.00,,,0.00,329.000000,,2013-01-03 16:53:00,
2013-01-03 11:03:00,40.0,29.0,-100.00,NNE,17,0.0,0.0,64,0.00,,,0.00,329.000000,,2013-01-03 17:03:00,
2013-01-03 11:33:00,41.0,28.0,-100.00,NNW,343,0.0,0.0,60,0.00,,,0.00,320.000000,,2013-01-03 17:33:00,
2013-01-03 11:43:00,41.0,28.0,-100.00,NNW,343,0.0,0.0,60,0.00,,,0.00,320.000000,,2013-01-03 17:43:00,
2013-01-03 11:53:00,41.0,28.0,-100.00,NNW,343,0.0,0.0,60,0.00,,,0.00,320.000000,,2013-01-03 17:53:00,
2013-01-03 12:03:00,41.0,28.0,-100.00,NNW,343,0.0,0.0,60,0.00,,,0.00,320.000000,,2013-01-03 18:03:00,
2013-01-03 12:33:00,44.0,28.0,-100.00,North,353,8.0,14.0,52,0.00,,,0.00,457.000000,,2013-01-03 18:33:00,
2013-01-03 12:43:00,44.0,28.0,-100.00,North,353,8.0,14.0,52,0.00,,,0.00,457.000000,,2013-01-03 18:43:00,
2013-01-03 12:53:00,44.0,28.0,-100.00,North,353,8.0,14.0,52,0.00,,,0.00,457.000000,,2013-01-03 18:53:00,
2013-01-03 13:03:00,44.0,28.0,-100.00,North,353,8.0,14.0,52,0.00,,,0.00,457.000000,,2013-01-03 19:03:00,
2013-01-03 13:56:00,47.0,24.0,-100.00,North,1,8.0,17.0,40,0.00,,,0.00,669.000000,,2013-01-03 19:56:00,
2013-01-03 14:03:00,47.0,24.0,-100.00,North,1,8.0,17.0,40,0.00,,,0.00,669.000000,,2013-01-03 20:03:00,
2013-01-03 14:33:00,50.0,25.0,-100.00,North,2,8.0,14.0,37,0.00,,,0.00,595.000000,,2013-01-03 20:33:00,
2013-01-03 14:43:00,50.0,25.0,-100.00,North,2,8.0,14.0,37,0.00,,,0.00,595.000000,,2013-01-03 20:43:00,
2013-01-03 14:53:00,50.0,25.0,-100.00,North,2,8.0,14.0,37,0.00,,,0.00,595.000000,,2013-01-03 20:53:00,
2013-01-03 15:02:00,50.0,25.0,-100.00,North,2,8.0,14.0,37,0.00,,,0.00,595.000000,,2013-01-03 21:02:00,
2013-01-03 15:38:00,50.0,25.0,-100.00,North,5,9.0,16.0,38,0.00,,,0.00,466.000000,,2013-01-03 21:38:00,
2013-01-03 15:50:00,50.0,25.0,-100.00,North,5,9.0,16.0,38,0.00,,,0.00,466.000000,,2013-01-03 21:50:00,
2013-01-03 16:03:00,50.0,25.0,-100.00,North,5,9.0,16.0,38,0.00,,,0.00,466.000000,,2013-01-03 22:03:00,
2013-01-03 16:33:00,49.0,26.0,-100.00,North,354,9.0,14.0,40,0.00,,,0.00,292.000000,,2013-01-03 22:33:00,
2013-01-03 16:43:00,49.0,26.0,-100.00,North,354,9.0,14.0,40,0.00,,,0.00,292.000000,,2013-01-03 22:43:00,
2013-01-03 16:52:00,49.0,26.0,-100.00,North,354,9.0,14.0,40,0.00,,,0.00,292.000000,,2013-01-03 22:52:00,
2013-01-03 17:02:00,49.0,26.0,-100.00,North,354,9.0,14.0,40,0.00,,,0.00,292.000000,,2013-01-03 23:02:00,
2013-01-03 17:33:00,45.0,27.0,-100.00,NNW,334,5.0,12.0,49,0.00,,,0.00,64.000000,,2013-01-03 23:33:00,
2013-01-03 17:43:00,45.0,27.0,-100.00,NNW,334,5.0,12.0,49,0.00,,,0.00,64.000000,,2013-01-03 23:43:00,
2013-01-03 17:53:00,45.0,27.0,-100.00,NNW,334,5.0,12.0,49,0.00,,,0.00,64.000000,,2013-01-03 23:53:00,
2013-01-03 18:03:00,45.0,27.0,-100.00,NNW,334,5.0,12.0,49,0.00,,,0.00,64.000000,,2013-01-04 00:03:00,
2013-01-03 18:33:00,41.0,29.0,-100.00,NNW,347,4.0,8.0,61,0.00,,,0.00,1.000000,,2013-01-04 00:33:00,
2013-01-03 18:42:00,41.0,29.0,-100.00,NNW,347,4.0,8.0,61,0.00,,,0.00,1.000000,,2013-01-04 00:42:00,
2013-01-03 18:53:00,41.0,29.0,-100.00,NNW,347,4.0,8.0,61,0.00,,,0.00,1.000000,,2013-01-04 00:53:00,
2013-01-03 19:02:00,41.0,29.0,-100.00,NNW,347,4.0,8.0,61,0.00,,,0.00,1.000000,,2013-01-04 01:02:00,
2013-01-03 19:33:00,36.0,30.0,-100.00,SSE,152,0.0,5.0,78,0.00,,,0.00,0.000000,,2013-01-04 01:33:00,
2013-01-03 19:42:00,36.0,30.0,-100.00,SSE,152,0.0,5.0,78,0.00,,,0.00,0.000000,,2013-01-04 01:42:00,
2013-01-03 19:52:00,36.0,30.0,-100.00,SSE,152,0.0,5.0,78,0.00,,,0.00,0.000000,,2013-01-04 01:52:00,
2013-01-03 20:02:00,36.0,30.0,-100.00,SSE,152,0.0,5.0,78,0.00,,,0.00,0.000000,,2013-01-04 02:02:00,
2013-01-03 20:33:00,36.0,30.0,-100.00,NW,319,4.0,6.0,79,0.00,,,0.00,0.000000,,2013-01-04 02:33:00,
2013-01-03 20:42:00,36.0,30.0,-100.00,NW,319,4.0,6.0,79,0.00,,,0.00,0.000000,,2013-01-04 02:42:00,
2013-01-03 20:53:00,36.0,30.0,-100.00,NW,319,4.0,6.0,79,0.00,,,0.00,0.000000,,2013-01-04 02:53:00,
2013-01-03 21:02:00,36.0,30.0,-100.00,NW,319,4.0,6.0,79,0.00,,,0.00,0.000000,,2013-01-04 03:02:00,
2013-01-03 21:33:00,36.0,29.0,-100.00,NNW,332,4.0,7.0,74,0.00,,,0.00,0.000000,,2013-01-04 03:33:00,
2013-01-03 21:43:00,36.0,29.0,-100.00,NNW,332,4.0,7.0,74,0.00,,,0.00,0.000000,,2013-01-04 03:43:00,
2013-01-03 21:53:00,36.0,29.0,-100.00,NNW,332,4.0,7.0,74,0.00,,,0.00,0.000000,,2013-01-04 03:53:00,
2013-01-03 22:02:00,36.0,29.0,-100.00,NNW,332,4.0,7.0,74,0.00,,,0.00,0.000000,,2013-01-04 04:02:00,
2013-01-03 22:32:00,36.0,25.0,-100.00,North,349,4.0,8.0,65,0.00,,,0.00,0.000000,,2013-01-04 04:32:00,
2013-01-03 22:42:00,36.0,25.0,-100.00,North,349,4.0,8.0,65,0.00,,,0.00,0.000000,,2013-01-04 04:42:00,
2013-01-03 22:52:00,36.0,25.0,-100.00,North,349,4.0,8.0,65,0.00,,,0.00,0.000000,,2013-01-04 04:52:00,
2013-01-03 23:03:00,36.0,25.0,-100.00,North,349,4.0,8.0,65,0.00,,,0.00,0.000000,,2013-01-04 05:03:00,
2013-01-03 23:33:00,36.0,27.0,-100.00,NNW,347,5.0,7.0,69,0.00,,,0.00,0.000000,,2013-01-04 05:33:00,
2013-01-03 23:42:00,36.0,27.0,-100.00,NNW,347,5.0,7.0,69,0.00,,,0.00,0.000000,,2013-01-04 05:42:00,
2013-01-03 23:53:00,36.0,27.0,-100.00,NNW,347,5.0,7.0,69,0.00,,,0.00,0.000000,,2013-01-04 05:53:00,